Location: Buigny
(50.0985°N, 1.9365°E)
Time: 15:47:43
(UTC+00:00)

Daily predictions for brighter satellites

Satellite Brightness Start Highest point End
(mag) Time Altitude Azimuth Time Altitude Azimuth Time Altitude Azimuth
Gbstr 26 Del rocket 3.2 20:27:52 10° WSW 20:32:08 79° SSE 20:37:23 10° ENE
Timation 2 Rocket 4.4 20:26:51 10° S 20:32:41 41° ESE 20:38:20 10° NE
Cosmos 1125 Rocket 4.4 20:30:27 10° SSE 20:34:58 29° E 20:39:30 10° NE
USA 276 2.0 20:36:25 10° W 20:39:19 64° SSW 20:42:19 10° ESE
Cosmos 2084 3.7 20:39:03 10° SSW 20:42:56 40° SE 20:46:40 10° NE
SPOT 3 Rocket 3.9 20:39:13 10° SE 20:44:15 53° ENE 20:49:20 10° N
NOSS 2-2 (E) 3.1 20:47:23 10° SSW 20:50:29 41° SE 20:53:27 10° NE
NOSS 2-2 (C) 2.6 20:47:38 10° SSW 20:50:47 66° SE 20:53:56 10° NE
Nadezhda 3 Rocket 4.0 20:46:43 10° N 20:52:55 85° E 20:59:04 10° S
In-Cosmos 22 Rocket 4.4 20:47:26 10° S 20:53:03 60° E 20:58:35 10° NNE
Landsat 4 4.4 20:50:01 10° SE 20:53:08 34° ENE 20:56:18 10° N
BREEZE-M DEB (TANK) 3.4 20:51:19 10° W 20:54:01 59° SSW 21:01:01 10° ESE
Cosmos 1544 Rocket 4.4 20:50:09 10° N 20:54:10 36° ENE 20:58:03 11° SE
NOSS 2-3 (E) 3.4 20:53:07 10° SSW 20:56:39 49° SE 21:00:35 10° NE
Cosmos 1844 4.0 20:51:38 10° SSW 20:57:26 77° WNW 21:03:14 10° NNE
Terra 1.8 20:53:22 10° SSE 20:58:06 89° ENE 21:02:51 10° NNW
Meteor 1-21 Rocket 4.3 20:58:58 10° SSW 21:04:31 82° WNW 21:10:06 10° N
USA 305 3.8 21:01:25 10° W 21:05:05 42° N 21:08:25 10° ENE
GP-B 4.4 21:02:36 10° N 21:06:47 42° W 21:10:55 10° SSW
ATLAS CENTAUR R/B 1.7 21:03:14 10° NW 21:07:09 56° SW 21:10:52 12° SSE
Cosmos 1437 Rocket 3.8 21:07:19 13° SE 21:09:47 24° E 21:12:47 10° NE
Meteor 2-1 Rocket 4.2 21:07:41 10° NNW 21:13:22 90° ENE 21:18:55 10° S
Cosmos 1833 Rocket 2.9 21:07:44 10° NNW 21:13:23 65° ENE 21:18:22 13° SE
NOSS 2-3 (C) 3.1 21:10:45 10° SSW 21:14:22 71° SE 21:18:28 10° NE
Cosmos 1455 Rocket 3.6 21:10:23 10° NNW 21:14:42 56° W 21:18:58 10° S
Cosmos 1975 Rocket 3.1 21:14:29 10° S 21:18:56 87° W 21:23:27 10° N
Cosmos 1025 Rocket 4.2 21:15:24 10° SSW 21:19:27 44° WNW 21:23:33 10° N
Orbus 7S? 4.1 21:17:12 10° WNW 21:19:32 24° SW 21:21:20 14° S
Cosmos 44 4.0 21:14:57 10° S 21:19:46 37° ESE 21:24:25 10° NE
Lacrosse 5 2.3 21:16:44 10° WSW 21:21:47 68° NNW 21:26:51 10° NE
ERS-1 Rocket 3.7 21:19:04 10° S 21:23:54 49° W 21:28:46 10° NNW
Cosmos 220 Rocket 3.9 21:20:42 10° NNW 21:24:51 86° ENE 21:28:09 16° SSE
Spot 2 Rocket 3.8 21:19:48 10° S 21:24:52 64° WSW 21:29:57 10° NNW
Cosmos 2082 Rocket 3.5 21:21:25 10° NNW 21:26:23 31° NE 21:31:18 10° ESE
NOSS 2-2 (D) 2.8 21:25:01 10° SW 21:28:15 81° NW 21:31:25 10° NE
USA 307 3.6 21:24:32 10° W 21:28:20 48° N 21:31:59 10° ENE
ATLAS 5 CENTAUR R/B 3.1 21:25:17 10° W 21:28:24 32° NW 21:31:56 10° NNE
Cosmos 2218 Rocket 4.3 21:23:41 12° SSE 21:29:02 47° E 21:34:55 10° NNE
Landsat 5 4.0 21:26:31 10° NNE 21:30:45 46° E 21:34:10 15° S
Cosmos 1844 Rocket 4.1 21:28:24 10° WSW 21:33:38 40° NW 21:38:55 10° NNE
Cosmos 2278 Rocket 3.2 21:31:13 15° SSE 21:34:40 27° ESE 21:39:21 10° NE
Cosmos 1606 2.9 21:31:35 10° NNW 21:35:06 59° W 21:38:05 14° S
MetOp-A 3.7 21:35:02 17° SSE 21:38:35 71° ENE 21:42:54 10° N
Cosmos 2298 Rocket 4.2 21:33:46 10° S 21:38:55 54° ESE 21:44:06 10° NNE
ULPM Upper Stage 4.4 21:35:58 10° NW 21:39:53 31° NNE 21:43:47 10° E
Cosmos 2341 Rocket 4.0 21:33:42 10° S 21:39:57 71° E 21:46:17 10° NNE
Cosmos 614 Rocket 4.0 21:35:47 10° NNW 21:40:52 70° ENE 21:44:35 18° SE
Meteor 1-11 4.5 21:37:26 10° SSW 21:43:10 74° WNW 21:48:52 10° N
Cosmos 1869 4.0 21:43:14 10° NNW 21:46:56 48° W 21:50:08 13° SSW
H-2A R/B 4.4 21:44:33 10° ESE 21:47:04 17° ENE 21:49:37 10° NNE
CZ-4C R/B 4.0 21:43:44 10° NW 21:49:44 38° NNE 21:57:05 10° E
Cosmos 1536 Rocket 3.7 21:47:10 18° SSE 21:50:10 55° E 21:54:24 10° NNE
Ariane Rocket 4.0 21:47:33 10° SSW 21:52:20 42° W 21:57:09 10° NNW
ISS -3.4 21:49:50 10° W 21:53:09 64° N 21:56:28 10° E
COSMOS 2406 4.2 21:50:50 10° NNW 21:56:08 38° NE 22:00:48 13° ESE
USA 290 3.8 21:58:15 20° ESE 21:58:23 20° ESE 22:00:48 10° NE
ARIANE 5 R/B 3.1 21:58:54 21° SE 22:01:36 49° ENE 22:05:56 10° N
GENESIS II 4.4 21:58:23 10° NW 22:01:52 50° SW 22:03:31 26° S
Cosmos 1269 Rocket 4.4 21:58:19 10° NNW 22:03:33 55° ENE 22:07:06 20° SE
BREEZE-M DEB (TANK) 3.8 21:53:22 10° WNW 22:03:54 41° SW 22:06:11 22° SSE
Cosmos 1727 Rocket 4.2 21:58:09 10° N 22:04:27 62° ENE 22:08:48 21° SSE
ATLAS 3B R/B 3.8 22:01:26 19° SSE 22:04:58 28° ESE 22:11:08 10° NE
Cosmos 2228 3.4 22:01:04 10° NNW 22:05:13 57° W 22:08:06 18° S
Geosat 4.2 22:04:46 10° NNE 22:09:47 72° NW 22:14:47 10° SW
Cosmos 1943 Rocket 3.0 22:08:20 22° SSE 22:11:01 32° ESE 22:15:58 10° NE
USA 276 3.7 22:10:56 10° W 22:13:09 19° SW 22:13:09 19° SW
Cosmos 1821 Rocket 4.1 22:09:49 20° SSE 22:14:15 63° E 22:20:32 10° NNE
USA 281 4.4 22:10:17 10° ESE 22:16:03 34° NE 22:21:50 10° NNW
Cosmos 1125 Rocket 4.5 22:11:39 10° SW 22:16:47 48° WNW 22:21:56 10° NNE
Gbstr 26 Del rocket 3.7 22:14:14 10° W 22:18:58 73° N 22:24:53 10° E
Cosmos 2058 4.3 22:19:03 20° ESE 22:20:20 24° E 22:23:39 10° NE
Cosmos 2150 Rocket 4.2 22:15:11 10° SSW 22:20:35 76° WNW 22:26:05 10° NNE
ALOS 2 3.9 22:19:19 18° ESE 22:21:48 30° ENE 22:25:40 10° N
Cosmos 2084 Rocket 3.3 22:21:18 10° NW 22:25:18 72° NE 22:27:21 27° ESE
Spot 4 4.4 22:23:23 23° SE 22:26:10 48° ENE 22:30:50 10° N
NOSS 3-1 (C) 3.0 22:24:27 11° SSW 22:29:11 68° SE 22:35:06 10° NE
Cosmos 1544 4.4 22:30:25 14° ENE 22:30:25 14° ENE 22:31:06 10° NE
SeaSat 1 2.9 22:26:56 20° SE 22:30:11 55° NE 22:35:00 10° NNW
Cosmos 1812 2.6 22:31:47 10° N 22:35:18 61° ENE 22:36:28 37° SE
Terra 4.3 22:34:10 10° WSW 22:36:22 13° W 22:38:34 10° WNW
Cosmos 2366 rocket 4.4 22:30:37 11° SSW 22:36:31 58° WNW 22:42:36 10° N
USA 305 3.3 22:34:15 10° WNW 22:37:45 44° N 22:40:34 11° E
Cosmos 1238 Rocket 3.9 22:37:49 10° NNE 22:40:49 29° ENE 22:42:01 24° ESE
Aureole 2 4.1 22:41:11 44° SSW 22:42:03 81° ESE 22:45:27 10° NNE
BREEZE-M R/B 3.8 22:37:55 10° WSW 22:42:16 71° SSE 22:56:54 10° E
PSLV R/B 3.9 22:39:20 10° NNE 22:43:19 65° ESE 22:44:50 35° S
Cosmos 1437 Rocket 4.4 22:42:12 10° SW 22:45:19 27° WNW 22:48:28 10° N
Cosmos 1892 Rocket 3.6 22:45:05 32° SSE 22:47:00 65° E 22:51:26 10° NNE
Cosmos 1140 Rocket 3.7 22:46:55 10° NNW 22:52:01 63° ENE 22:54:48 27° SE
Cosmos 1833 Rocket 4.2 22:52:22 10° NW 22:56:51 25° WSW 23:00:03 15° SW
MINOTAUR 4 R/B 3.4 22:54:05 10° NNE 22:56:55 64° ESE 22:57:02 63° ESE
Cosmos 2239 Rocket 4.4 22:55:30 24° S 22:59:23 89° ESE 23:05:41 10° N
Cosmos 44 4.4 22:55:50 10° WSW 23:00:54 48° NW 23:05:44 10° NNE
BREEZE-M DEB (TANK) 3.5 22:58:29 10° W 23:01:21 69° SSW 23:08:56 10° ESE
SL-08 R/B 4.4 22:57:35 25° S 23:01:22 89° WSW 23:07:32 10° N
USA 307 3.3 22:58:14 10° WNW 23:02:00 52° NNE 23:05:26 10° E
Cosmos-2242 3.8 23:00:13 10° N 23:04:12 39° ENE 23:05:51 27° ESE
Cosmos 2123 Rocket 4.0 22:58:00 10° N 23:04:19 81° E 23:07:51 28° SSE
Cosmos 1606 Rocket 4.5 23:01:00 10° NNW 23:05:02 39° W 23:07:01 24° SW
CENTAUR R/B 4.3 22:58:03 10° NW 23:05:12 41° NNE 23:13:29 10° E
Lacrosse 5 3.4 23:00:40 10° WNW 23:05:24 38° N 23:10:09 10° ENE
NOSS 3-1 (A) 3.1 23:03:57 27° SSW 23:06:37 61° SE 23:12:29 10° NE
Cosmos 1726 Rocket 4.1 23:03:05 10° NNW 23:07:17 49° W 23:09:05 29° SSW
NOSS 8 (F) 4.2 23:05:20 10° NW 23:08:23 75° SW 23:09:06 52° SSE
Cosmos 2082 Rocket 2.4 23:05:18 10° NW 23:10:50 60° WSW 23:13:28 31° S
Cosmos 1515 4.2 23:10:48 10° N 23:14:08 42° ENE 23:14:57 35° ESE
Cosmos 2278 Rocket 2.7 23:12:59 11° SW 23:18:21 60° WNW 23:24:00 10° NNE
ULPM Upper Stage 2.8 23:15:16 10° NW 23:19:37 65° SW 23:20:59 40° SSE
PSLV R/B 4.1 23:16:52 10° NNE 23:21:02 45° E 23:22:20 34° SE
Cosmos 2369 Rocket 3.5 23:19:37 21° SE 23:21:15 24° ESE 23:25:38 10° NE
H-2A R/B 2.6 23:20:31 38° SSW 23:21:39 53° W 23:25:25 10° NNW
Cosmos 489 Rocket 4.5 23:24:24 29° S 23:27:40 69° ESE 23:33:51 10° NNE
ISS -3.9 23:26:39 10° WNW 23:29:58 71° SSW 23:30:09 68° S
USA 290 3.9 23:30:56 18° WSW 23:32:36 29° WNW 23:35:28 10° N
Cosmos 2058 Rocket 3.5 23:28:53 10° NNW 23:33:06 50° W 23:34:37 34° SSW
Cosmos 1782 2.6 23:29:49 10° N 23:33:39 81° E 23:34:35 49° SSE
USA 229 DEB 4.1 23:32:18 29° SSE 23:34:31 38° ESE 23:40:36 10° NE
USA 229 4.2 23:32:27 29° SSE 23:34:39 38° ESE 23:40:43 10° NE
CRYOSAT 2 4.3 23:31:00 10° N 23:35:55 89° E 23:37:58 36° S
Cosmos 1862 4.1 23:35:38 31° ESE 23:36:24 34° E 23:39:56 10° NNE
Cosmos 1378 2.8 23:34:31 10° N 23:37:43 63° ENE 23:38:06 56° ESE
ARIANE 5 R/B 4.4 23:36:22 17° SW 23:38:16 22° W 23:41:43 10° NW
Cosmos 482 Debris 4.1 23:33:56 10° WSW 23:38:31 81° NNW 23:41:50 10° ENE
CZ-4C R/B 2.9 23:31:57 10° NW 23:38:57 88° SW 23:45:35 18° SE
COSMOS 2455 4.0 23:34:04 10° NNW 23:39:46 41° NE 23:45:26 10° ESE
Meteor 2-2 Rocket 4.2 23:34:45 10° NNW 23:40:31 85° ENE 23:43:24 31° SSE
COSMOS 2406 3.7 23:35:09 10° NW 23:40:32 46° WSW 23:42:50 30° SSW
Cosmos 1934 Rocket 4.1 23:39:12 26° SSW 23:42:53 72° WNW 23:49:07 10° N
Cosmos 2221 3.9 23:41:02 10° N 23:44:49 30° ENE 23:46:52 20° ESE
Cosmos 2285 Rocket 4.1 23:45:07 10° NNW 23:51:36 77° ENE 23:55:34 25° SSE
